Location: Newark
(7.0858°N, 171.3717°E)
Time: 09:48:49
(UTC+00:00)

S-56A Canister/Altair - Pass Details

Date: 02 December 2020
Orbit: 633 x 2499 km, 38.9° (Epoch: 27 January)

Event Time Altitude Azimuth Distance (km) Brightness Sun altitude
Rises 16:23:35 0° 276° (W) 2,932 - -30.5°
Reaches altitude 10° 16:27:08 10° 246° (WSW) 2,005 - -29.7°
Maximum altitude 16:29:07 13° 219° (SW) 1,862 - -29.3°
Exits shadow 16:31:02 10° 194° (SSW) 2,073 9.8 -28.8°
Drops below altitude 10° 16:31:11 10° 192° (SSW) 2,101 9.9 -28.8°
Sets 16:35:07 0° 163° (SSE) 3,224 11.2 -27.9°
